Espace membre
Imprimable
Challenges > Delhalle - Bousval, 06/03/2016, BEL - Le Cross de Bousval
Liste des rapports > 10 km - Classement
Recherche: Page: [1]
59 Entrées
 
Les réclamations ne sont plus acceptées, les résultats sont considérés comme définitifs.
Catégorie
PosNrNomAgeIOCLigueEquipeRéelTempsTkmMoy.RangNomScrLocalité
1.9197REMY SAMANTHA29BELSPIBO55:1955:195:32 10.851dam23MONS
2.9200BOURGUET AUDREY31BEL55:0955:205:32 10.852dam24
3.9144WALRAVENS LEA63BELNAC55:5055:525:36 10.741ai327
4.9225EGA CAROLINE28BELJC HSHS56:2656:285:39 10.633dam29
5.9195LEMBOURG MARIE31BEL58:0158:195:50 10.294dam33
6.9207CAPRON CATHERINE42BEL58:1858:305:51 10.261ai135MONTIGNY LE TILLEUL
7.2966JOACHIM ELISE33BEL58:1458:305:51 10.265dam36CORROY-LE-CHATEAU
8.9162SIMON FLORENCE45BEL58:5159:045:55 10.162ai140
9.9233FRANCE JULIE32BEL1:00:361:00:516:06 9.866dam46COURT-ST-ETIENNE
10.9134LAMBERT JULIETTE16BEL1:00:491:01:046:07 9.831esf47
11.3678WINAND VALÉRIE39BEL1:00:511:01:056:07 9.827dam48ETTERBEEK
12.3691VLAMINCK NATACHA43BEL1:01:071:01:256:09 9.773ai149WAVRE
13.9165EL BAKRI MATHILDE31BEL1:01:551:02:156:14 9.648dam56
14.9237STERCKX FABIENNE48BELJC HSH1:02:211:02:246:15 9.624ai157
15.9239DEKEYZER CATHERINE51BELJC HSH1:02:221:02:256:15 9.611ai258
16.9238DEGROOTE MARIANNE28BEL1:03:381:03:446:23 9.429dam61
17.9229LAGAERT RITA62BELJET1:04:031:04:056:25 9.362ai362
18.9216LECLERCQ SARAH37BELSPIBO1:04:381:04:406:28 9.2810dam63HERCHIES
19.9163BLATTER NATHALIE43BEL1:04:381:04:476:29 9.265ai164
20.9127WOCILLARO CATHERINE42BEL1:05:301:05:486:35 9.126ai167
21.9142CHELLI YARIA47BEL1:05:471:06:016:37 9.097ai169
22.9208CLUYSE ANNE50BELJAMESJAMES1:07:011:07:076:43 8.942ai270
23.9155REMY NOELLE34BELSPT WAVRE1:07:011:07:086:43 8.9411dam71
24.9220STRODIOT LAURENCE35BEL1:07:001:07:116:44 8.9312dam72
25.9210WILLEMS ADELAINE36BEL1:07:111:07:226:45 8.9113dam73
26.9223VERSAILLES ELISABETH44BELRIWARIWA1:07:231:07:316:46 8.898ai175
27.9217BEQUET GINETTE66BELJETJET1:07:491:07:536:48 8.843ai376OPHAIN BSI
28.9240JABER ALICIA28BEL1:08:091:08:156:50 8.7914dam78
29.9190SIBILLE CECILE46BELUACUAC1:08:111:08:316:52 8.769ai180
30.9154MUVETTE DEBORAH43BEL1:08:401:08:406:52 8.7410ai181
31.3712VAN DEN PUT SONIA54BEL1:08:401:08:476:53 8.723ai282BIEZ
32.9138NOON CAOLE31BEL1:09:281:09:326:58 8.6315dam83
33.9209DEHAYE ANNE45BELJAMESJAMES1:09:411:09:476:59 8.6011ai184
34.9141BERTRAND CECILE45BEL1:10:251:10:297:03 8.5112ai186
35.9231CERINI CARLA49BELESM1:10:351:10:477:05 8.4813ai187
36.3686WINDERICKX KARIANE28BEL1:10:471:11:027:07 8.4516dam88HORRUES
37.9188RAGUZZI NADIA50BELUACUAC1:10:461:11:067:07 8.444ai289
38.9151DE TERWANGNE ANNICK51BELJCPMF GENAPPE1:11:131:11:197:08 8.415ai290VILLERS LA VILLE
39.9180MUSCH ELISE17BEL1:11:391:11:497:11 8.352esf91
40.3674CARRIERE ANNE34BEL1:12:001:12:107:13 8.3117dam92LOUPOIGNE
41.9181DEBUSSCHER ANNE49BEL1:12:091:12:257:15 8.2914ai193BRUXELLES
42.9205GODECHOUL CHRISTINE45BEL1:12:211:12:317:16 8.2715ai194
43.9184HOOGSTEYN FRÉDÉRIQUE44BELCLINIQUE ST JEAN1:12:211:12:327:16 8.2716ai195LOUPOIGNE
44.9194DOHET AGNES49BELUACUAC1:12:131:12:327:16 8.2717ai196
45.9187DELSART MARIE-NOELLE36BELUACUAC1:12:151:12:367:16 8.2718dam97
46.9140GARSIDE ICAREN55BEL1:12:511:12:567:18 8.236ai298
47.9212CLOSSE CARINE50BELCSFMYSTERE1:13:101:13:287:21 8.177ai2100BRUXELLES
48.9204CATTIN CELINE40BELMYSTERE1:13:101:13:287:21 8.1718ai1101
49.9152REVESZ PATRICIA54BEL1:13:411:13:467:23 8.138ai2102BOUSVAL
50.9182DEWULF ERIKA45BEL1:13:531:14:117:26 8.0919ai1103SAUVAGEMONT (LASNE)
51.9236GRANDMONT ANITA49NLDJCPMF GENAPPE1:14:591:15:147:32 7.9820ai1105BOUSVAL
52.9232GECELE CAROLINE53ITAJCPMF GENAPPE1:16:471:17:017:43 7.799ai2108BAISY THY
53.9159LEVEQUE FABIENNE54BELJCPMF GENAPPE1:18:471:19:067:55 7.5910ai2109
54.9193FREVILLE ELSA44FRA1:19:331:19:538:00 7.5121ai1110WOLUWÉ ST LAMBERT
55.9173ELIARD CECILE38BELJCPMF GENAPPE1:20:441:20:488:05 7.4319dam111
56.9227DURITA SNJEZAN52BELJ.E.T.1:22:471:23:008:18 7.2311ai2112ENGHIEN
57.9224BRICHET MARTINE59BELJ.E.T.1:24:311:24:448:29 7.0812ai2113ENGHIEN
58.9139VALLE RAMIREZ MARIA45BELJOGGANS1:25:541:26:088:37 6.9722ai1114
59.9168HAYET CHRISTINE50BELJCPMF GENAPPE1:33:461:33:559:24 6.3913ai2115
DNF: abandon; DSQ: disqualifié; Vitesse en km/h
Page: [1]